Theta_e
314 310 311 310 311 311 312 312 312 313 313 312 313 312 314 315 314 313 314 315 316 317 318 318 319 319 319 319 320 319 318 318 318 323 324 322 322 327 343 347 347 347 345 345
310 311 313 313 314 314 314 313 312 312 314 314 313 315 315 313 312 315 315 316 316 317 318 319 318 318 319 320 320 320 319 318 318 321 324 321 319 319 323 332 344 341 346 344
313 313 314 314 313 315 314 314 313 313 314 314 314 314 315 315 315 315 320 320 319 319 320 320 319 319 320 320 320 320 319 318 318 321 323 321 319 318 318 320 335 344 343 341
313 313 315 313 314 315 313 313 314 315 313 314 314 315 314 314 317 318 318 320 321 321 320 320 319 318 318 320 320 320 319 319 319 322 321 319 318 318 317 318 332 340 343 341
313 314 313 314 315 315 314 314 314 314 313 312 312 314 313 315 319 317 319 320 320 321 320 319 320 321 321 321 320 320 319 319 319 321 320 318 318 318 319 319 326 327 325 336
313 316 315 315 316 315 315 313 312 310 309 311 314 319 317 318 319 319 319 320 320 320 320 319 320 320 322 322 320 320 319 319 319 319 319 319 319 319 324 327 331 332 332 335
315 316 316 316 315 314 313 310 311 312 311 314 314 317 316 320 320 320 320 320 320 320 321 320 322 322 322 323 321 321 322 322 320 321 321 320 321 325 327 327 329 332 335 336
313 314 317 314 314 314 313 311 310 316 315 315 317 317 315 320 321 321 320 319 319 319 319 319 320 321 321 322 322 323 323 324 323 323 325 324 325 328 327 329 330 330 334 339
313 315 314 314 314 314 314 314 311 312 314 315 315 316 320 319 319 320 320 320 319 318 319 319 319 320 320 321 321 321 322 322 322 324 330 328 327 330 330 333 331 327 332 336
314 314 314 315 314 313 313 312 310 311 319 319 316 316 316 320 319 320 321 320 320 318 318 319 318 318 319 320 320 321 321 322 325 325 325 324 323 325 330 330 333 327 330 333
313 312 314 314 314 313 312 311 314 313 316 318 319 315 319 319 319 318 318 318 319 318 318 319 318 318 318 318 319 320 320 321 321 323 324 325 325 324 328 329 332 325 331 335
313 311 313 315 313 314 312 312 312 312 313 316 317 315 316 318 318 318 317 317 318 318 318 317 318 318 319 318 317 317 318 320 320 323 324 324 323 324 329 331 326 328 332 334
315 311 316 315 311 311 313 313 313 312 309 314 313 312 312 312 313 315 316 317 318 318 317 318 317 317 317 318 318 317 316 316 319 321 324 323 323 324 328 327 325 327 333 334
316 309 314 317 316 313 315 314 313 312 309 314 313 312 311 312 313 314 314 316 316 316 316 316 317 317 316 315 315 316 317 317 317 320 324 326 324 326 326 326 326 332 332 332
311 311 312 313 314 315 315 315 315 315 314 314 313 312 315 315 316 312 312 312 313 314 314 315 314 314 314 314 315 315 315 315 315 318 321 325 326 327 327 324 327 331 329 330
309 312 313 315 314 315 317 315 313 313 313 314 317 319 316 314 313 312 311 311 311 311 310 312 313 312 312 313 314 314 314 314 314 315 321 325 325 324 323 326 328 327 325 325
307 304 309 314 314 314 316 314 315 318 317 317 318 314 313 312 312 311 311 310 309 309 309 311 312 312 313 312 312 312 313 313 313 313 320 324 324 323 328 325 324 324 323 321
305 303 312 314 314 315 314 316 316 315 315 315 314 313 310 310 311 311 310 310 309 308 309 310 310 311 312 312 312 312 312 312 311 312 320 324 324 324 325 323 324 320 319 319
309 313 314 313 309 311 314 317 316 315 314 314 312 311 311 311 310 309 309 308 308 308 308 307 307 307 308 310 311 311 309 309 312 317 323 324 324 323 323 321 320 318 318 316
311 309 308 313 316 314 315 315 313 314 314 312 312 310 310 309 311 309 307 307 306 306 306 306 306 306 307 308 308 310 309 309 317 319 321 321 323 322 320 320 317 315 314 310
309 309 310 308 315 314 315 313 313 307 309 312 312 310 309 309 308 307 306 305 305 305 305 305 305 305 305 307 309 308 308 309 315 321 321 319 318 320 320 318 315 313 311 308
308 311 312 308 311 311 311 311 314 312 312 311 310 309 308 307 306 305 305 305 305 305 306 306 305 305 305 305 307 308 308 312 318 318 321 318 319 318 317 316 312 311 307 305
306 310 310 313 310 310 311 312 312 312 309 309 307 307 306 305 305 304 304 305 306 306 305 306 306 307 306 305 306 307 310 314 317 319 319 319 317 315 313 314 310 308 308 304
306 307 305 308 308 309 312 311 311 309 307 307 306 305 305 304 304 305 306 304 304 305 305 307 307 307 307 305 306 309 313 315 318 319 318 316 315 310 310 309 306 304 302 302
307 306 307 310 311 311 311 311 307 306 306 305 304 304 304 304 305 305 303 303 305 306 308 312 309 308 307 306 307 312 314 316 314 316 312 311 311 311 310 307 305 304 301 299
306 304 309 311 309 311 309 306 305 306 305 304 304 304 304 304 304 303 303 304 306 306 309 309 308 307 306 307 310 314 315 316 314 312 310 312 312 309 307 306 304 299 298 299
Wind_Speed
9 4 4 7 6 7 5 5 10 5 5 7 11 9 20 22 22 22 28 32 38 38 39 31 35 34 32 33 31 31 28 26 22 25 27 26 25 25 29 40 39 32 40 37
7 4 3 6 5 6 6 7 7 7 7 9 12 18 20 11 13 23 26 30 36 40 40 37 32 32 35 34 35 33 28 25 23 26 29 25 24 28 28 31 35 47 44 37
2 11 8 8 7 9 5 5 5 9 12 4 12 8 14 19 17 22 19 27 13 16 26 33 33 32 26 35 32 31 29 27 23 27 29 23 22 27 29 30 30 29 39 42
4 6 8 11 7 8 5 6 6 9 7 10 5 11 12 6 10 5 22 28 27 29 24 19 26 26 30 33 31 30 28 26 20 25 24 20 21 25 23 25 27 23 26 32
10 7 11 6 5 4 5 6 2 5 9 6 7 2 6 8 6 9 15 27 30 21 28 16 14 3 7 17 28 27 26 21 20 23 21 21 21 18 14 16 19 20 26 26
8 9 3 1 3 5 5 6 7 5 2 3 3 1 4 4 8 6 14 23 32 24 22 33 12 8 4 10 23 22 22 21 20 21 20 21 22 18 14 16 17 18 19 21
4 3 2 7 5 7 11 8 5 6 4 5 5 5 8 5 6 6 9 26 31 30 15 19 19 23 16 5 12 10 14 21 25 23 23 24 22 14 15 16 17 16 17 21
1 7 2 4 2 4 4 6 4 6 4 16 0 6 5 3 1 9 18 24 30 32 30 26 23 24 23 22 18 13 10 7 11 20 26 24 15 16 17 15 19 17 16 20
5 4 5 11 4 3 4 3 5 4 2 5 4 7 2 3 3 6 8 16 16 30 27 29 24 20 20 19 16 14 13 11 10 9 5 10 15 20 17 16 18 18 14 15
3 8 7 2 3 5 5 1 4 4 4 5 5 5 6 2 5 6 8 8 19 31 28 24 26 21 18 14 11 12 14 14 12 9 10 9 10 9 11 13 18 19 15 13
3 5 5 2 5 6 4 2 1 1 3 4 5 5 3 4 4 3 7 9 11 25 26 23 22 22 18 13 12 10 11 11 10 12 12 11 10 7 6 11 16 18 17 15
4 4 8 13 8 13 5 6 5 4 6 4 4 11 10 7 4 2 9 17 22 20 20 23 20 21 23 20 19 15 13 13 13 14 10 12 14 16 4 10 12 14 13 11
3 3 9 8 6 4 3 4 2 2 0 12 6 8 7 14 22 16 18 17 14 14 16 16 15 17 18 19 23 25 21 20 16 14 12 12 16 17 8 11 11 8 5 14
12 3 10 15 16 5 10 11 7 5 3 13 11 23 16 10 8 15 17 14 13 13 14 18 13 10 7 6 9 12 14 16 17 15 15 15 16 10 11 13 8 10 15 19
2 6 6 7 10 13 14 19 13 15 17 11 22 18 3 6 8 7 17 21 19 19 18 14 9 8 8 7 9 12 14 16 19 16 15 10 12 10 8 5 7 10 12 22
1 10 5 7 12 13 16 18 19 18 17 14 14 13 8 7 10 14 20 24 26 28 26 22 18 13 14 14 17 17 17 17 19 19 15 6 10 9 8 7 12 18 23 29
4 2 1 7 3 7 8 14 8 4 5 2 5 6 2 4 6 10 18 24 28 30 27 23 27 27 20 18 21 19 19 20 21 18 15 9 12 10 13 16 19 23 25 29
4 3 3 3 3 3 5 3 3 1 8 6 6 4 6 11 16 21 28 30 30 26 12 11 10 10 9 14 19 18 20 22 21 19 10 16 15 12 18 22 23 28 32 32
7 3 2 2 3 7 8 4 1 4 14 11 4 5 11 14 20 22 22 20 18 25 31 34 34 27 22 18 13 14 15 15 8 10 10 17 19 19 25 24 28 35 34 36
4 3 4 2 4 4 1 6 17 9 10 5 2 6 11 18 14 13 21 26 33 36 36 34 32 30 25 23 26 22 19 12 6 12 15 18 20 21 28 30 34 37 39 43
5 5 4 3 5 7 1 14 12 5 4 8 11 19 22 14 19 38 35 38 37 36 33 31 29 28 26 23 20 26 19 11 8 17 16 18 24 28 30 33 39 41 39 39
4 4 2 3 4 6 10 21 2 6 10 17 21 24 27 30 34 36 37 38 37 37 35 33 32 30 24 26 30 29 20 15 15 22 19 22 28 33 35 37 42 39 41 43
4 2 3 4 5 18 25 13 24 13 16 21 23 27 25 32 35 34 36 39 36 37 36 31 29 26 23 22 21 22 21 18 28 24 26 30 32 36 39 42 43 43 39 39
5 9 4 7 4 11 25 34 19 24 27 27 26 29 34 33 35 38 33 38 39 39 37 31 24 26 22 22 21 25 23 24 31 32 33 35 36 40 41 42 42 41 41 39
12 6 6 8 15 21 19 21 23 27 24 27 33 33 32 33 35 29 37 38 38 37 30 17 26 25 25 26 26 23 27 34 36 38 39 40 39 38 37 34 36 37 38 36
5 6 1 8 25 16 16 25 24 22 31 34 33 34 32 32 27 34 34 32 30 16 3 18 25 28 28 29 30 30 32 35 39 41 42 41 39 38 38 39 37 32 30 34
Wind_Direction
327 49 293 268 226 233 265 301 312 326 299 332 302 300 302 306 292 287 288 283 284 284 285 272 258 254 249 242 241 242 247 250 246 247 243 253 263 264 256 247 242 240 241 232
10 295 240 293 316 321 331 320 302 267 320 316 301 301 294 297 278 289 292 296 291 287 285 276 256 254 255 244 244 240 240 245 248 249 243 250 269 279 270 265 260 252 236 242
286 268 298 330 329 314 291 245 285 283 315 266 293 284 293 308 290 297 345 349 336 304 295 269 258 242 243 240 234 230 232 232 240 238 239 250 274 285 283 270 271 265 249 245
260 269 316 301 291 285 286 234 273 321 352 309 3 301 320 304 318 12 349 3 350 348 2 291 253 248 246 256 233 226 223 228 238 232 236 254 279 287 284 279 274 285 276 266
250 266 284 291 262 294 259 309 307 282 290 308 305 276 284 330 331 334 4 1 349 358 346 351 50 259 232 243 225 219 220 229 239 228 248 261 267 292 297 294 286 277 280 281
258 286 228 194 6 0 295 356 350 357 52 5 263 105 268 352 297 2 15 27 12 340 343 322 34 44 101 209 208 216 225 228 235 242 255 258 265 282 304 315 302 291 279 271
294 257 346 37 8 354 21 33 330 340 355 233 307 323 262 306 335 61 23 23 12 18 346 1 72 74 77 108 211 225 236 231 231 235 244 251 256 286 306 318 317 306 284 273
309 329 33 14 50 272 274 146 159 279 294 296 157 254 268 212 198 53 35 34 12 352 4 15 42 64 74 75 73 64 53 26 270 258 250 258 263 282 290 302 315 319 297 276
320 274 333 329 19 72 286 238 225 257 245 303 247 279 292 330 3 48 51 359 4 322 344 11 33 41 49 68 65 59 57 46 35 36 260 275 281 268 277 297 307 321 300 279
247 292 227 206 37 305 230 338 338 324 290 267 272 274 240 318 347 8 20 353 279 316 328 341 3 11 26 33 45 56 55 57 46 23 0 0 348 304 283 292 304 318 303 271
224 177 262 338 188 228 302 317 325 170 228 253 283 263 250 244 224 43 292 279 241 303 308 308 327 344 348 355 352 355 11 24 34 25 11 351 349 335 278 290 307 318 302 260
253 238 272 272 237 254 196 186 142 131 279 250 260 268 254 216 248 237 278 288 272 275 274 288 294 291 308 324 326 326 322 335 357 5 352 339 309 336 302 291 312 308 301 258
326 288 309 304 343 16 176 193 198 223 159 254 251 269 349 308 307 293 294 300 276 267 290 303 286 291 294 292 291 304 312 322 323 341 334 334 325 331 280 280 301 278 256 179
309 220 222 264 268 255 272 265 261 210 216 274 248 279 286 299 294 305 305 296 289 303 302 312 328 312 273 282 288 291 303 316 321 335 357 357 337 312 273 273 268 212 207 209
65 255 232 247 277 277 270 277 269 251 250 245 279 283 285 294 309 345 8 0 348 336 325 317 331 325 315 319 305 295 297 306 318 331 352 348 321 291 272 264 209 185 193 188
271 272 267 257 271 265 273 276 279 275 269 266 289 281 210 292 342 343 334 327 320 314 316 311 306 301 305 295 288 294 297 302 315 322 342 306 286 250 237 180 176 168 168 173
216 187 78 279 345 332 271 252 229 241 253 210 257 235 164 266 276 295 301 301 294 293 298 291 286 290 285 288 291 291 295 294 298 308 317 269 265 228 176 172 168 168 162 161
183 121 175 275 317 231 253 126 104 241 276 252 252 227 243 262 287 304 303 296 295 295 269 277 296 291 270 270 272 275 283 289 300 297 285 242 243 213 180 173 171 163 156 154
137 149 265 285 242 280 282 93 340 299 297 282 231 264 272 296 311 296 301 292 280 288 293 292 288 282 280 275 269 266 284 301 286 263 242 223 215 189 169 165 160 158 154 146
71 85 145 225 252 272 173 28 341 273 277 86 269 277 293 312 298 300 306 295 292 287 286 287 283 278 264 262 262 261 284 291 282 237 222 201 199 191 162 159 157 153 147 140
313 289 237 247 257 273 235 352 312 92 266 305 310 300 295 287 284 297 299 295 293 295 292 290 281 269 260 235 243 254 262 237 237 215 190 189 178 169 161 157 154 148 143 140
276 291 307 304 250 286 355 347 349 282 304 312 303 303 297 291 297 297 297 297 296 290 288 281 275 267 255 242 233 240 246 206 213 194 181 175 168 164 162 160 152 148 142 139
295 138 269 240 248 293 311 313 313 296 310 313 305 304 298 299 298 301 300 299 298 293 292 288 272 262 248 229 224 219 187 197 186 186 171 166 166 165 161 159 153 147 146 136
274 291 236 326 291 297 304 305 301 323 315 310 308 307 308 302 304 302 305 305 304 306 298 285 259 237 222 203 194 168 179 186 178 170 166 162 160 158 157 155 151 141 133 128
264 303 253 257 280 306 298 318 322 313 312 315 312 309 307 307 305 309 310 313 319 321 310 271 215 199 187 184 167 172 180 177 169 165 159 155 154 152 150 147 140 134 128 132
211 220 253 293 306 294 308 317 320 312 317 315 310 311 313 313 311 316 316 326 340 335 124 127 151 161 162 157 164 168 171 176 167 156 151 151 150 148 142 138 131 128 127 131